| time (UTC) | temp F | wind direction | speed MPH | gust MPH | rain 1hr in | rain 24hr in | rain mn in | humidity % | barometer mb |
| 20260903215912 | 63 | 0.0 | 0.0 | 0.00 | 0.00 | 0.00 | 10 | 1024.3 | |
| 20260903214916 | 63 | 0.0 | 0.0 | 0.00 | 0.00 | 0.00 | 10 | 1024.2 | |
| 20260903214412 | 63 | 0.0 | 0.0 | 0.00 | 0.00 | 0.00 | 10 | 1024.2 | |
| 20260903213912 | 63 | 0.0 | 0.0 | 0.00 | 0.00 | 0.00 | 10 | 1024.2 | |
| 20260903213412 | 63 | 0.0 | 0.0 | 0.00 | 0.00 | 0.00 | 10 | 1024.3 | |
| 20260903212913 | 63 | 0.0 | 0.0 | 0.00 | 0.00 | 0.00 | 10 | 1024.4 | |
| 20260903212411 | 63 | 0.0 | 0.0 | 0.00 | 0.00 | 0.00 | 10 | 1024.4 | |
| 20260903210912 | 64 | 0.0 | 0.0 | 0.00 | 0.00 | 0.00 | 10 | 1024.2 | |
| 20260903210412 | 64 | 0.0 | 0.0 | 0.00 | 0.00 | 0.00 | 10 | 1024.3 | |
| 20260903205411 | 64 | 0.0 | 0.0 | 0.00 | 0.00 | 0.00 | 10 | 1024.4 | |
| 20260903204411 | 64 | 0.0 | 0.0 | 0.00 | 0.00 | 0.00 | 10 | 1024.4 | |
| 20260903203912 | 65 | 0.0 | 0.0 | 0.00 | 0.00 | 0.00 | 10 | 1024.4 | |
| 20260903203413 | 65 | 0.0 | 0.0 | 0.00 | 0.00 | 0.00 | 10 | 1024.4 | |
| 20260903202911 | 65 | 0.0 | 0.0 | 0.00 | 0.00 | 0.00 | 10 | 1024.4 | |
| 20260903201911 | 65 | 0.0 | 0.0 | 0.00 | 0.00 | 0.00 | 10 | 1024.4 | |
| 20260903201412 | 66 | 0.0 | 0.0 | 0.00 | 0.00 | 0.00 | 10 | 1024.4 | |
| 20260903200912 | 66 | 0.0 | 0.0 | 0.00 | 0.00 | 0.00 | 10 | 1024.5 | |
| 20260903200412 | 66 | 0.0 | 0.0 | 0.00 | 0.00 | 0.00 | 10 | 1024.4 | |
| 20260903195911 | 66 | 0.0 | 0.0 | 0.00 | 0.00 | 0.00 | 10 | 1024.4 | |
| 20260903195412 | 66 | 0.0 | 0.0 | 0.00 | 0.00 | 0.00 | 10 | 1024.3 | |
| 20260903194412 | 67 | 0.0 | 0.0 | 0.00 | 0.00 | 0.00 | 10 | 1024.3 | |
| 20260903193911 | 67 | 0.0 | 0.0 | 0.00 | 0.00 | 0.00 | 10 | 1024.3 | |
| 20260903193412 | 68 | 0.0 | 0.0 | 0.00 | 0.00 | 0.00 | 10 | 1024.4 | |
| 20260903192912 | 68 | 0.0 | 0.0 | 0.00 | 0.00 | 0.00 | 10 | 1024.4 | |
| 20260903192412 | 68 | 0.0 | 0.0 | 0.00 | 0.00 | 0.00 | 10 | 1024.3 | |
| 20260903191911 | 68 | 0.0 | 0.0 | 0.00 | 0.00 | 0.00 | 10 | 1024.3 | |
| 20260903191411 | 69 | 0.0 | 0.0 | 0.00 | 0.00 | 0.00 | 10 | 1024.1 | |
| 20260903190912 | 69 | 0.0 | 0.0 | 0.00 | 0.00 | 0.00 | 10 | 1024.1 | |
| 20260903190411 | 69 | 0.0 | 0.0 | 0.00 | 0.00 | 0.00 | 10 | 1024.1 | |
| 20260903185911 | 70 | 0.0 | 0.0 | 0.00 | 0.00 | 0.00 | 10 | 1024.1 | |
| 20260903184912 | 71 | 0.0 | 0.0 | 0.00 | 0.00 | 0.00 | 10 | 1024.0 | |
| 20260903184412 | 71 | 0.0 | 0.0 | 0.00 | 0.00 | 0.00 | 10 | 1023.9 | |
| 20260903183911 | 72 | 0.0 | 0.0 | 0.00 | 0.00 | 0.00 | 10 | 1024.0 | |
| 20260903183412 | 72 | 0.0 | 0.0 | 0.00 | 0.00 | 0.00 | 10 | 1023.9 | |
| 20260903182411 | 74 | 0.0 | 0.0 | 0.00 | 0.00 | 0.00 | 10 | 1023.9 | |
| 20260903181911 | 74 | 0.0 | 0.0 | 0.00 | 0.00 | 0.00 | 10 | 1023.9 | |
| 20260903181411 | 75 | 0.0 | 0.0 | 0.00 | 0.00 | 0.00 | 10 | 1023.8 | |
| 20260903180911 | 76 | 0.0 | 0.0 | 0.00 | 0.00 | 0.00 | 10 | 1023.8 | |
| 20260903174912 | 79 | 0.0 | 0.0 | 0.00 | 0.00 | 0.00 | 93 | 1023.5 | |
| 20260903174412 | 80 | 0.0 | 0.0 | 0.00 | 0.00 | 0.00 | 89 | 1023.5 | |
| 20260903173912 | 81 | 0.0 | 0.0 | 0.00 | 0.00 | 0.00 | 88 | 1023.4 | |
| 20260903173412 | 81 | 0.0 | 0.0 | 0.00 | 0.00 | 0.00 | 87 | 1023.3 | |
| 20260903172912 | 81 | 0.0 | 0.0 | 0.00 | 0.00 | 0.00 | 86 | 1023.3 | |
| 20260903172411 | 81 | 0.0 | 0.0 | 0.00 | 0.00 | 0.00 | 86 | 1023.3 | |
| 20260903171411 | 81 | 0.0 | 0.0 | 0.00 | 0.00 | 0.00 | 88 | 1023.4 | |
| 20260903170911 | 81 | 0.0 | 0.0 | 0.00 | 0.00 | 0.00 | 87 | 1023.4 | |
| 20260903170411 | 81 | 0.0 | 0.0 | 0.00 | 0.00 | 0.00 | 86 | 1023.3 | |
| 20260903165911 | 81 | 0.0 | 0.0 | 0.00 | 0.00 | 0.00 | 85 | 1023.4 | |
| 20260903164412 | 81 | 0.0 | 0.0 | 0.00 | 0.00 | 0.00 | 81 | 1023.5 | |
| 20260903163912 | 81 | 0.0 | 0.0 | 0.00 | 0.00 | 0.00 | 82 | 1023.5 | |
| 20260903163412 | 81 | 0.0 | 0.0 | 0.00 | 0.00 | 0.00 | 84 | 1023.5 | |
| 20260903162912 | 81 | 0.0 | 0.0 | 0.00 | 0.00 | 0.00 | 82 | 1023.5 | |
| 20260903162412 | 81 | 0.0 | 0.0 | 0.00 | 0.00 | 0.00 | 80 | 1023.5 | |
| 20260903161958 | 81 | 0.0 | 0.0 | 0.00 | 0.00 | 0.00 | 79 | 1023.5 | |
| 20260903161411 | 82 | 0.0 | 0.0 | 0.00 | 0.00 | 0.00 | 79 | 1023.3 | |
| 20260903160912 | 82 | 0.0 | 0.0 | 0.00 | 0.00 | 0.00 | 79 | 1023.4 | |
| 20260903160411 | 82 | 0.0 | 0.0 | 0.00 | 0.00 | 0.00 | 77 | 1023.4 | |
| 20260903155912 | 82 | 0.0 | 0.0 | 0.00 | 0.00 | 0.00 | 76 | 1023.4 | |
| 20260903155412 | 83 | 0.0 | 0.0 | 0.00 | 0.00 | 0.00 | 75 | 1023.5 | |
| 20260903154912 | 83 | 0.0 | 0.0 | 0.00 | 0.00 | 0.00 | 75 | 1023.6 | |
| 20260903154413 | 83 | 0.0 | 0.0 | 0.00 | 0.00 | 0.00 | 76 | 1023.5 | |
| 20260903153911 | 83 | 0.0 | 0.0 | 0.00 | 0.00 | 0.00 | 76 | 1023.5 | |
| 20260903153412 | 83 | 0.0 | 0.0 | 0.00 | 0.00 | 0.00 | 75 | 1023.6 | |
| 20260903152912 | 83 | 0.0 | 0.0 | 0.00 | 0.00 | 0.00 | 76 | 1023.7 | |
| 20260903152412 | 83 | 0.0 | 0.0 | 0.00 | 0.00 | 0.00 | 75 | 1023.8 | |
| 20260903151911 | 83 | 0.0 | 0.0 | 0.00 | 0.00 | 0.00 | 73 | 1023.7 | |
| 20260903151411 | 83 | 0.0 | 0.0 | 0.00 | 0.00 | 0.00 | 72 | 1023.7 | |
| 20260903150911 | 83 | 0.0 | 0.0 | 0.00 | 0.00 | 0.00 | 74 | 1023.7 | |
| 20260903150411 | 83 | 0.0 | 0.0 | 0.00 | 0.00 | 0.00 | 73 | 1023.8 | |
| 20260903144911 | 84 | 0.0 | 0.0 | 0.00 | 0.00 | 0.00 | 73 | 1023.9 | |
| 20260903144412 | 83 | 0.0 | 0.0 | 0.00 | 0.00 | 0.00 | 76 | 1023.9 | |
| 20260903143412 | 83 | 0.0 | 0.0 | 0.00 | 0.00 | 0.00 | 76 | 1023.9 | |
| 20260903142912 | 83 | 0.0 | 0.0 | 0.00 | 0.00 | 0.00 | 76 | 1024.0 | |
| 20260903142412 | 83 | 0.0 | 0.0 | 0.00 | 0.00 | 0.00 | 77 | 1023.9 | |
| 20260903141911 | 82 | 0.0 | 0.0 | 0.00 | 0.00 | 0.00 | 74 | 1023.9 | |
| 20260903140912 | 82 | 0.0 | 0.0 | 0.00 | 0.00 | 0.00 | 76 | 1024.0 | |
| 20260903140412 | 82 | 0.0 | 0.0 | 0.00 | 0.00 | 0.00 | 74 | 1024.1 | |
| 20260903135912 | 82 | 0.0 | 0.0 | 0.00 | 0.00 | 0.00 | 73 | 1024.1 | |
| 20260903135412 | 83 | 0.0 | 0.0 | 0.00 | 0.00 | 0.00 | 77 | 1024.2 | |
| 20260903134912 | 82 | 0.0 | 0.0 | 0.00 | 0.00 | 0.00 | 78 | 1024.2 | |
| 20260903134412 | 82 | 0.0 | 0.0 | 0.00 | 0.00 | 0.00 | 77 | 1024.1 | |
| 20260903133913 | 82 | 0.0 | 0.0 | 0.00 | 0.00 | 0.00 | 80 | 1024.1 | |
| 20260903133411 | 82 | 0.0 | 0.0 | 0.00 | 0.00 | 0.00 | 78 | 1024.2 | |
| 20260903131912 | 83 | 0.0 | 0.0 | 0.00 | 0.00 | 0.00 | 73 | 1024.4 | |
| 20260903131412 | 84 | 0.0 | 0.0 | 0.00 | 0.00 | 0.00 | 79 | 1024.4 | |
| 20260903130911 | 85 | 0.0 | 0.0 | 0.00 | 0.00 | 0.00 | 79 | 1024.4 | |
| 20260903130411 | 85 | 0.0 | 0.0 | 0.00 | 0.00 | 0.00 | 84 | 1024.4 | |
| 20260903124912 | 80 | 0.0 | 0.0 | 0.00 | 0.00 | 0.00 | 94 | 1024.6 | |
| 20260903124411 | 81 | 0.0 | 0.0 | 0.00 | 0.00 | 0.00 | 91 | 1024.6 | |
| 20260903123912 | 81 | 0.0 | 0.0 | 0.00 | 0.00 | 0.00 | 94 | 1024.6 | |
| 20260903123412 | 81 | 0.0 | 0.0 | 0.00 | 0.00 | 0.00 | 91 | 1024.5 | |
| 20260903122911 | 83 | 0.0 | 0.0 | 0.00 | 0.00 | 0.00 | 93 | 1024.5 | |
| 20260903121911 | 80 | 0.0 | 0.0 | 0.00 | 0.00 | 0.00 | 10 | 1024.8 | |
| 20260903120412 | 79 | 0.0 | 0.0 | 0.00 | 0.00 | 0.00 | 10 | 1024.7 | |
| 20260903115412 | 79 | 0.0 | 0.0 | 0.00 | 0.00 | 0.00 | 10 | 1024.9 | |
| 20260903114912 | 78 | 0.0 | 0.0 | 0.00 | 0.00 | 0.00 | 10 | 1024.8 | |
| 20260903114411 | 78 | 0.0 | 0.0 | 0.00 | 0.00 | 0.00 | 10 | 1025.0 | |
| 20260903113912 | 78 | 0.0 | 0.0 | 0.00 | 0.00 | 0.00 | 10 | 1025.1 | |
| 20260903113412 | 77 | 0.0 | 0.0 | 0.00 | 0.00 | 0.00 | 10 | 1025.1 | |
| 20260903111411 | 76 | 0.0 | 0.0 | 0.00 | 0.00 | 0.00 | 10 | 1025.3 | |
| 20260903110911 | 76 | 0.0 | 0.0 | 0.00 | 0.00 | 0.00 | 10 | 1025.4 | |
| 20260903110411 | 76 | 0.0 | 0.0 | 0.00 | 0.00 | 0.00 | 10 | 1025.4 | |
| 20260903105411 | 75 | 0.0 | 0.0 | 0.00 | 0.00 | 0.00 | 10 | 1025.4 | |
| 20260903104912 | 74 | 0.0 | 0.0 | 0.00 | 0.00 | 0.00 | 10 | 1025.5 | |
| 20260903104412 | 74 | 0.0 | 0.0 | 0.00 | 0.00 | 0.00 | 10 | 1025.6 | |
| 20260903103912 | 74 | 0.0 | 0.0 | 0.00 | 0.00 | 0.00 | 10 | 1025.6 | |
| 20260903103412 | 74 | 0.0 | 0.0 | 0.00 | 0.00 | 0.00 | 10 | 1025.6 | |
| 20260903102912 | 74 | 0.0 | 0.0 | 0.00 | 0.00 | 0.00 | 10 | 1025.7 | |
| 20260903102413 | 74 | 0.0 | 0.0 | 0.00 | 0.00 | 0.00 | 10 | 1025.8 | |
| 20260903101911 | 74 | 0.0 | 0.0 | 0.00 | 0.00 | 0.00 | 10 | 1025.7 | |
| 20260903101411 | 73 | 0.0 | 0.0 | 0.00 | 0.00 | 0.00 | 10 | 1025.9 | |
| 20260903100911 | 73 | 0.0 | 0.0 | 0.00 | 0.00 | 0.00 | 10 | 1025.9 | |
| 20260903100412 | 73 | 0.0 | 0.0 | 0.00 | 0.00 | 0.00 | 10 | 1026.1 | |
| 20260903095912 | 73 | 0.0 | 0.0 | 0.00 | 0.00 | 0.00 | 10 | 1026.1 | |
| 20260903095412 | 73 | 0.0 | 0.0 | 0.00 | 0.00 | 0.00 | 10 | 1026.2 | |
| 20260903094912 | 73 | 0.0 | 0.0 | 0.00 | 0.00 | 0.00 | 10 | 1026.2 | |
| 20260903094411 | 72 | 0.0 | 0.0 | 0.00 | 0.00 | 0.00 | 10 | 1026.2 | |
| 20260903093412 | 71 | 0.0 | 0.0 | 0.00 | 0.00 | 0.00 | 10 | 1026.2 | |
| 20260903092912 | 71 | 0.0 | 0.0 | 0.00 | 0.00 | 0.00 | 10 | 1026.3 | |
| 20260903092412 | 71 | 0.0 | 0.0 | 0.00 | 0.00 | 0.00 | 10 | 1026.2 | |
| 20260903091912 | 70 | 0.0 | 0.0 | 0.00 | 0.00 | 0.00 | 10 | 1026.2 | |
| 20260903091412 | 70 | 0.0 | 0.0 | 0.00 | 0.00 | 0.00 | 10 | 1026.3 | |
| 20260903090912 | 70 | 0.0 | 0.0 | 0.00 | 0.00 | 0.00 | 10 | 1026.3 | |
| 20260903090411 | 70 | 0.0 | 0.0 | 0.00 | 0.00 | 0.00 | 10 | 1026.3 | |
| 20260903085411 | 69 | 0.0 | 0.0 | 0.00 | 0.00 | 0.00 | 10 | 1026.4 | |
| 20260903084912 | 68 | 0.0 | 0.0 | 0.00 | 0.00 | 0.00 | 10 | 1026.5 | |
| 20260903084412 | 68 | 0.0 | 0.0 | 0.00 | 0.00 | 0.00 | 10 | 1026.4 | |
| 20260903083912 | 68 | 0.0 | 0.0 | 0.00 | 0.00 | 0.00 | 10 | 1026.4 | |
| 20260903083412 | 67 | 0.0 | 0.0 | 0.00 | 0.00 | 0.00 | 10 | 1026.4 | |
| 20260903082911 | 67 | 0.0 | 0.0 | 0.00 | 0.00 | 0.00 | 10 | 1026.3 | |
| 20260903081412 | 65 | 0.0 | 0.0 | 0.00 | 0.00 | 0.00 | 10 | 1026.4 | |
| 20260903080912 | 65 | 0.0 | 0.0 | 0.00 | 0.00 | 0.00 | 10 | 1026.5 | |
| 20260903080412 | 65 | 0.0 | 0.0 | 0.00 | 0.00 | 0.00 | 10 | 1026.5 | |
| 20260903075913 | 65 | 0.0 | 0.0 | 0.00 | 0.00 | 0.00 | 10 | 1026.5 | |
| 20260903075411 | 64 | 0.0 | 0.0 | 0.00 | 0.00 | 0.00 | 10 | 1026.6 | |
| 20260903074411 | 64 | 0.0 | 0.0 | 0.00 | 0.00 | 0.00 | 10 | 1026.5 | |
| 20260903073911 | 64 | 0.0 | 0.0 | 0.00 | 0.00 | 0.00 | 10 | 1026.5 | |
| 20260903073412 | 63 | 0.0 | 0.0 | 0.00 | 0.00 | 0.00 | 10 | 1026.6 | |
| 20260903072411 | 63 | 0.0 | 0.0 | 0.00 | 0.00 | 0.00 | 10 | 1026.5 | |
| 20260903071911 | 63 | 0.0 | 0.0 | 0.00 | 0.00 | 0.00 | 10 | 1026.5 | |
| 20260903071412 | 62 | 0.0 | 0.0 | 0.00 | 0.00 | 0.00 | 10 | 1026.6 | |
| 20260903070912 | 62 | 0.0 | 0.0 | 0.00 | 0.00 | 0.00 | 10 | 1026.5 | |
| 20260903070412 | 62 | 0.0 | 0.0 | 0.00 | 0.00 | 0.00 | 10 | 1026.5 | |
| 20260903065911 | 61 | 0.0 | 0.0 | 0.00 | 0.00 | 0.00 | 10 | 1026.6 | |
| 20260903065411 | 61 | 0.0 | 0.0 | 0.00 | 0.00 | 0.00 | 10 | 1026.6 | |
| 20260903064912 | 60 | 0.0 | 0.0 | 0.00 | 0.00 | 0.00 | 10 | 1026.4 | |
| 20260903064412 | 60 | 0.0 | 0.0 | 0.00 | 0.00 | 0.00 | 10 | 1026.5 | |
| 20260903063912 | 59 | 0.0 | 0.0 | 0.00 | 0.00 | 0.00 | 10 | 1026.4 | |
| 20260903062911 | 57 | 0.0 | 0.0 | 0.00 | 0.00 | 0.00 | 10 | 1026.4 | |
| 20260903062411 | 56 | 0.0 | 0.0 | 0.00 | 0.00 | 0.00 | 10 | 1026.4 | |
| 20260903061911 | 56 | 0.0 | 0.0 | 0.00 | 0.00 | 0.00 | 10 | 1026.3 | |
| 20260903061413 | 55 | 0.0 | 0.0 | 0.00 | 0.00 | 0.00 | 10 | 1026.2 | |
| 20260903060912 | 55 | 0.0 | 0.0 | 0.00 | 0.00 | 0.00 | 10 | 1026.4 | |
| 20260903060412 | 55 | 0.0 | 0.0 | 0.00 | 0.00 | 0.00 | 10 | 1026.2 | |
| 20260903055912 | 54 | 0.0 | 0.0 | 0.00 | 0.00 | 0.00 | 10 | 1026.4 | |
| 20260903055412 | 54 | 0.0 | 0.0 | 0.00 | 0.00 | 0.00 | 10 | 1026.4 | |
| 20260903054412 | 54 | 0.0 | 0.0 | 0.00 | 0.00 | 0.00 | 10 | 1026.3 | |
| 20260903053912 | 53 | 0.0 | 0.0 | 0.00 | 0.00 | 0.00 | 10 | 1026.4 | |
| 20260903053411 | 53 | 0.0 | 0.0 | 0.00 | 0.00 | 0.00 | 10 | 1026.3 | |
| 20260903052912 | 53 | 0.0 | 0.0 | 0.00 | 0.00 | 0.00 | 10 | 1026.3 | |
| 20260903052412 | 53 | 0.0 | 0.0 | 0.00 | 0.00 | 0.00 | 10 | 1026.2 | |
| 20260903051912 | 53 | 0.0 | 0.0 | 0.00 | 0.00 | 0.00 | 10 | 1026.1 | |
| 20260903051412 | 53 | 0.0 | 0.0 | 0.00 | 0.00 | 0.00 | 10 | 1026.1 | |
| 20260903050911 | 53 | 0.0 | 0.0 | 0.00 | 0.00 | 0.00 | 10 | 1026.0 | |
| 20260903045911 | 53 | 0.0 | 0.0 | 0.00 | 0.00 | 0.00 | 10 | 1025.9 | |
| 20260903045412 | 53 | 0.0 | 0.0 | 0.00 | 0.00 | 0.00 | 10 | 1025.9 | |
| 20260903044912 | 53 | 0.0 | 0.0 | 0.00 | 0.00 | 0.00 | 10 | 1026.0 | |
| 20260903044412 | 53 | 0.0 | 0.0 | 0.00 | 0.00 | 0.00 | 10 | 1026.0 | |
| 20260903043912 | 53 | 0.0 | 0.0 | 0.00 | 0.00 | 0.00 | 10 | 1025.9 | |
| 20260903042912 | 53 | 0.0 | 0.0 | 0.00 | 0.00 | 0.00 | 10 | 1026.1 | |
| 20260903042412 | 53 | 0.0 | 0.0 | 0.00 | 0.00 | 0.00 | 10 | 1026.1 | |
| 20260903041412 | 53 | 0.0 | 0.0 | 0.00 | 0.00 | 0.00 | 10 | 1026.1 | |
| 20260903040412 | 53 | 0.0 | 0.0 | 0.00 | 0.00 | 0.00 | 10 | 1026.1 | |
| 20260903035912 | 53 | 0.0 | 0.0 | 0.00 | 0.00 | 0.00 | 10 | 1026.1 | |
| 20260903035411 | 53 | 0.0 | 0.0 | 0.00 | 0.00 | 0.00 | 10 | 1026.0 | |
| 20260903034912 | 53 | 0.0 | 0.0 | 0.00 | 0.00 | 0.00 | 10 | 1026.0 | |
| 20260903034411 | 53 | 0.0 | 0.0 | 0.00 | 0.00 | 0.00 | 10 | 1026.0 | |
| 20260903033912 | 53 | 0.0 | 0.0 | 0.00 | 0.00 | 0.00 | 10 | 1025.9 | |
| 20260903033412 | 53 | 0.0 | 0.0 | 0.00 | 0.00 | 0.00 | 10 | 1025.9 | |
| 20260903032912 | 53 | 0.0 | 0.0 | 0.00 | 0.00 | 0.00 | 10 | 1025.7 | |
| 20260903032412 | 53 | 0.0 | 0.0 | 0.00 | 0.00 | 0.00 | 10 | 1025.7 | |
| 20260903025912 | 53 | 0.0 | 0.0 | 0.00 | 0.00 | 0.00 | 10 | 1025.9 | |
| 20260903025412 | 53 | 0.0 | 0.0 | 0.00 | 0.00 | 0.00 | 10 | 1025.9 | |
| 20260903024912 | 53 | 0.0 | 0.0 | 0.00 | 0.00 | 0.00 | 10 | 1025.9 | |
| 20260903024412 | 53 | 0.0 | 0.0 | 0.00 | 0.00 | 0.00 | 10 | 1025.8 | |
| 20260903023912 | 53 | 0.0 | 0.0 | 0.00 | 0.00 | 0.00 | 10 | 1025.7 | |
| 20260903023412 | 53 | 0.0 | 0.0 | 0.00 | 0.00 | 0.00 | 10 | 1025.7 | |
| 20260903022912 | 53 | 0.0 | 0.0 | 0.00 | 0.00 | 0.00 | 10 | 1025.7 | |
| 20260903022412 | 54 | 0.0 | 0.0 | 0.00 | 0.00 | 0.00 | 10 | 1025.7 | |
| 20260903021912 | 54 | 0.0 | 0.0 | 0.00 | 0.00 | 0.00 | 10 | 1025.7 | |
| 20260903021411 | 54 | 0.0 | 0.0 | 0.00 | 0.00 | 0.00 | 10 | 1025.7 | |
| 20260903020912 | 54 | 0.0 | 0.0 | 0.00 | 0.00 | 0.00 | 10 | 1025.7 | |
| 20260903020412 | 54 | 0.0 | 0.0 | 0.00 | 0.00 | 0.00 | 10 | 1025.6 | |
| 20260903015912 | 54 | 0.0 | 0.0 | 0.00 | 0.00 | 0.00 | 10 | 1025.6 | |
| 20260903015411 | 54 | 0.0 | 0.0 | 0.00 | 0.00 | 0.00 | 10 | 1025.6 | |
| 20260903014912 | 54 | 0.0 | 0.0 | 0.00 | 0.00 | 0.00 | 10 | 1025.7 | |
| 20260903014412 | 54 | 0.0 | 0.0 | 0.00 | 0.00 | 0.00 | 10 | 1025.7 | |
| 20260903013911 | 54 | 0.0 | 0.0 | 0.00 | 0.00 | 0.00 | 10 | 1025.7 | |
| 20260903013412 | 54 | 0.0 | 0.0 | 0.00 | 0.00 | 0.00 | 10 | 1025.6 | |
| 20260903012912 | 54 | 0.0 | 0.0 | 0.00 | 0.00 | 0.00 | 10 | 1025.6 | |
| 20260903012413 | 54 | 0.0 | 0.0 | 0.00 | 0.00 | 0.00 | 10 | 1025.5 | |
| 20260903011911 | 54 | 0.0 | 0.0 | 0.00 | 0.00 | 0.00 | 10 | 1025.5 | |
| 20260903011411 | 55 | 0.0 | 0.0 | 0.00 | 0.00 | 0.00 | 10 | 1025.5 | |
| 20260903005911 | 55 | 0.0 | 0.0 | 0.00 | 0.00 | 0.00 | 10 | 1025.5 | |
| 20260903004913 | 55 | 0.0 | 0.0 | 0.00 | 0.00 | 0.00 | 10 | 1025.5 | |
| 20260903004411 | 55 | 0.0 | 0.0 | 0.00 | 0.00 | 0.00 | 10 | 1025.5 | |
| 20260903003912 | 55 | 0.0 | 0.0 | 0.00 | 0.00 | 0.00 | 10 | 1025.4 | |
| 20260903003412 | 55 | 0.0 | 0.0 | 0.00 | 0.00 | 0.00 | 10 | 1025.4 | |
| 20260903002911 | 55 | 0.0 | 0.0 | 0.00 | 0.00 | 0.00 | 10 | 1025.4 | |
| 20260903002411 | 55 | 0.0 | 0.0 | 0.00 | 0.00 | 0.00 | 10 | 1025.4 | |
| 20260903001911 | 55 | 0.0 | 0.0 | 0.00 | 0.00 | 0.00 | 10 | 1025.5 | |
| 20260903001412 | 55 | 0.0 | 0.0 | 0.00 | 0.00 | 0.00 | 10 | 1025.6 | |
| 20260903000913 | 55 | 0.0 | 0.0 | 0.00 | 0.00 | 0.00 | 10 | 1025.6 | |
| 20260903000412 | 55 | 0.0 | 0.0 | 0.00 | 0.00 | 0.00 | 10 | 1025.5 | |
| 20260902235911 | 55 | 0.0 | 0.0 | 0.00 | 0.00 | 0.00 | 10 | 1025.6 | |
| 20260902235411 | 55 | 0.0 | 0.0 | 0.00 | 0.00 | 0.00 | 10 | 1025.5 | |
| 20260902234412 | 55 | 0.0 | 0.0 | 0.00 | 0.00 | 0.00 | 10 | 1025.6 | |
| 20260902233911 | 56 | 0.0 | 0.0 | 0.00 | 0.00 | 0.00 | 10 | 1025.4 | |
| 20260902232911 | 56 | 0.0 | 0.0 | 0.00 | 0.00 | 0.00 | 10 | 1025.5 | |
| 20260902232412 | 56 | 0.0 | 0.0 | 0.00 | 0.00 | 0.00 | 10 | 1025.6 | |
| 20260902231912 | 56 | 0.0 | 0.0 | 0.00 | 0.00 | 0.00 | 10 | 1025.6 | |
| 20260902231412 | 56 | 0.0 | 0.0 | 0.00 | 0.00 | 0.00 | 10 | 1025.6 | |
| 20260902230913 | 56 | 0.0 | 0.0 | 0.00 | 0.00 | 0.00 | 10 | 1025.5 | |
| 20260902230413 | 56 | 0.0 | 0.0 | 0.00 | 0.00 | 0.00 | 10 | 1025.5 | |
| 20260902225912 | 56 | 0.0 | 0.0 | 0.00 | 0.00 | 0.00 | 10 | 1025.6 | |
| 20260902225411 | 56 | 0.0 | 0.0 | 0.00 | 0.00 | 0.00 | 10 | 1025.5 | |
| 20260902224911 | 57 | 0.0 | 0.0 | 0.00 | 0.00 | 0.00 | 10 | 1025.5 | |
| 20260902224411 | 57 | 0.0 | 0.0 | 0.00 | 0.00 | 0.00 | 10 | 1025.4 | |
| 20260902223412 | 57 | 0.0 | 0.0 | 0.00 | 0.00 | 0.00 | 10 | 1025.4 | |
| 20260902221912 | 57 | 0.0 | 0.0 | 0.00 | 0.00 | 0.00 | 10 | 1025.4 | |
| 20260902221411 | 57 | 0.0 | 0.0 | 0.00 | 0.00 | 0.00 | 10 | 1025.3 | |
| 20260902220912 | 57 | 0.0 | 0.0 | 0.00 | 0.00 | 0.00 | 10 | 1025.3 | |
| 20260902220412 | 57 | 0.0 | 0.0 | 0.00 | 0.00 | 0.00 | 10 | 1025.3 |